Weather in Hervey Bay

Australia     25°17′24″S   152°51′16″E
temp.,
°C
wind,
m/s
gust,
m/s
humid.,
%
clouds,
%
prec.,
mm/h
press.,
hPa
HPBL,
m
13 may, thu
thu1301:00+21sse34882 0.4 1014138
04:00+20ssw33896 0.4 1012137
07:00+20sw33906 0.0 1014145
10:00+22sw33790 0.0 1014333
13:00+24nnw33713 0.0 1011273
16:00+25nw45670 0.0 101095
19:00+22ssw611640 0.0 1012356
22:00+20ssw712480 0.0 1014378
14 may, fri
fri1401:00+17ssw511570 0.0 1013342
04:00+16sw611610 0.0 1013353
07:00+15sw69650 0.0 1015272
10:00+19ssw67490 0.0 1015595
13:00+23ssw35390 0.0 10121031
16:00+23e22470 0.0 101244
19:00+21ese45570 0.0 1014314
22:00+18ssw44690 0.0 1016169
15 may, sat
sat1501:00+17ssw45670 0.0 1015167
04:00+16sw55650 0.0 1015176
07:00+15ssw56670 0.0 1017193
10:00+19ssw45520 0.0 1017447
13:00+22sw13370 0.0 1014789
16:00+23ne11390 0.0 1014113
19:00+21w33480 0.0 1016362
22:00+17ssw611560 0.0 1017390
16 may, sun
sun1601:00+15ssw69600 0.0 1017328
04:00+13s68650 0.0 1017285
07:00+13s68690 0.0 1019237
10:00+18sse8116996 0.0 1020630
13:00+21se896683 0.2 10181351
16:00+21se9106491 0.4 10181271
19:00+19sse8106992 0.0 1021704
22:00+18sse710785 0.0 1021480
17 may, mon
mon1701:00+17sse57816 0.0 1021365
04:00+16sse68829 0.0 1021316
07:00+16s688531 0.0 1023287
10:00+20sse68600 0.0 1023985
13:00+22se77530 0.0 10211490
16:00+21se77620 0.0 10211093
19:00+20se89735 0.0 1023690
22:00+20se68685 0.0 1024954